Other Public Products
Issued by NWS Charleston, SC

Current Version | Previous Version | Graphics & Text | Print | Product List | Glossary On
Versions: 1 2 3 4 5 6 7 8 9 10 11 12 13 14 15 16 17 18 19 20 21 22 23 24 25 26 27 28 29 30 31 32 33 34 35 36 37 38 39 40 41 42 43 44 45 46 47 48 49 50
589
FPUS82 KCHS 241529
OPUCHS

TEST...KCHS/KSAV Gateway Observations...TEST
National Weather Service Charleston SC
1100 AM EDT SUN SEP 24 2017

NOTE: "fair" indicates few or no clouds below 12,000 feet with no
significant weather and/or obstructions to visibility.

SCZ050-WAZ558-NCZ071-TXZ119-213-PAZ071-DCZ001-FLZ074-172-MI076-
NYZ176-178-MAZ016-IL014-TNZ027-NJZ106-GAZ044-MD014-241600-

...Gateway Observations for Charleston International...

CITY           SKY/WX    TMP DP  RH WIND       PRES   REMARKS
Chas Airport   PTSUNNY   78  69  73 NE13      30.02S
Seattle        MOCLDY    51  48  89 CALM      30.15F
Charlotte      PTSUNNY   78  67  68 VRB5      30.12S
Dallas DFW     PTSUNNY   80  71  74 S12       29.94R
Dallas Love    PTSUNNY   79  70  74 SE9       29.95R
Philladelphia  SUNNY     84  63  49 N3        30.09S
Wash National  MOSUNNY   83  65  54 NE10      30.10F
Baltimore      MOSUNNY   84  64  50 NE9       30.10S
Miami          PTSUNNY   87  75  67 VRB7      29.90R HX  96
Detroit        MOSUNNY   81  65  58 CALM      30.18S
Newark         SUNNY     83  63  50 N10       30.07F
Laguardia      SUNNY     84  64  50 N5        30.07S
J F K          SUNNY     86  63  45 N9        30.08S
Boston Logan   SUNNY     76  63  64 E5        30.06S
Ft. Lauderdale CLOUDY    84  77  79 CALM      29.88S HX  94
Chicago O`Hare SUNNY     84  63  49 SW3       30.09S
Chicago Midway SUNNY     83  64  52 SW6       30.10S
Houston Bush   MOSUNNY   84  75  74 E8        29.92R HX  92
Houston Hobby  MOSUNNY   86  73  65 SE10      29.90R HX  93
Nashville      MOSUNNY   81  68  64 S7        30.08S
Atlanta        PTSUNNY   78  66  66 NE10      30.10F

$$

GAZ044-118-TXZ119-213-NCZ071-DCZ001-MDZ014-506-PAZ021-071-NJZ106-
NYZ176-178-MAZ106-OHZ011-021-055-MIZ076-KYZ091-ILZ014-INZ047-
MNZ060-ONZ431-241600-

...Gateway Observations for Savannah International...

CITY           SKY/WX    TMP DP  RH WIND       PRES   REMARKS
Savannah Arpt  PTSUNNY   81  71  71 NE10      30.02S
Atlanta        PTSUNNY   78  66  66 NE10      30.10F
Charlotte      PTSUNNY   78  67  68 VRB5      30.12S
Dallas DFW     PTSUNNY   80  71  74 S12       29.94R
Houston Bush   MOSUNNY   84  75  74 E8        29.92R HX  92
Wash National  MOSUNNY   83  65  54 NE10      30.10F
Wash Dulles    MOSUNNY   81  64  56 N7        30.12F
Baltimore      MOSUNNY   84  64  50 NE9       30.10S
Philadelphia   SUNNY     84  63  49 N3        30.09S
Newark         SUNNY     83  63  50 N10       30.07F
Laguardia      SUNNY     84  64  50 N5        30.07S
J F K          SUNNY     86  63  45 N9        30.08S
Boston         SUNNY     76  63  64 E5        30.06S
Pittsburg      MOSUNNY   78  61  55 E6        30.19S
Akron          SUNNY     83  63  50 E5        30.20S
Cleveland      SUNNY     87  64  46 VRB3      30.19F
Cincinnati     SUNNY     77  64  64 SE5       30.13R
Columbus       SUNNY     79  62  56 CALM      30.15S
Detroit        MOSUNNY   81  65  58 CALM      30.18S
Chicago O`Hare SUNNY     84  63  49 SW3       30.09S
Minneapolis    PTSUNNY   77  66  68 S10       29.95S
Indianapolis   SUNNY     80  62  54 E5        30.12S
Toronto Canada SUNNY     84  66  54 N3        30.16S

$$




USA.gov is the U.S. government's official web portal to all federal, state and local government web resources and services.